Villa Grove, CO

3:50 PM MST on January 18, 2017 (GMT -0700)
Monarch Pass

Weather History for KMYP - January, 2013

Change the Weather History Date:

Monday, January 7, 2013

  Actual Average (KGUC) Record (KGUC)
Temperature  
Mean Temperature 23 °F -  
Max Temperature 32 °F 24 °F 44 °F (1999)
Min Temperature 14 °F 0 °F -29 °F (2017)
Degree Days  
Heating Degree Days 42    
Moisture  
Dew Point -8 °F    
Average Humidity 28    
Maximum Humidity 49    
Minimum Humidity 14    
Precipitation  
Precipitation 0.00 in - - ()
Sea Level Pressure  
Sea Level Pressure 30.16 in    
Wind  
Wind Speed 20 mph (WSW)    
Max Wind Speed 29 mph    
Max Gust Speed 28 mph    
Averages and records for this station are not official NWS values.
T = Trace of Precipitation, MM = Missing Value Source: NWS Daily Summary

Daily Weather History Graph

Daily Weather History Graph

Search for Another Location

Airport or City:

Trip Planner

Search our weather history database for the weather conditions in past years. The results will help you decide how hot, cold, wet, or windy it might be!

Date:

Astronomy

Jan. 07, 2013 Rise Set
Actual Time 7:21 AM MST 5:00 PM MST
Civil Twilight 6:52 AM MST 5:30 PM MST
Nautical Twilight 6:19 AM MST 6:02 PM MST
Astronomical Twilight 5:47 AM MST 6:34 PM MST
Moon 2:49 AM MST (1/7) 1:13 PM MST (1/7)
Length of Visible Light 10h 37m
Length of Day
9h 38m
Waning Crescent, 22% of the Moon is Illuminated
Jan 7
Waning Crescent
Jan 11
New
Jan 18
First Quarter
Jan 26
Full
Feb 3
Last Quarter

Hourly Weather History & Observations

Time (MST) Temp. Windchill Dew Point Humidity Pressure Visibility Wind Dir Wind Speed Gust Speed Precip Events Conditions
12:37 AM 19.4 °F 2.5 °F -9.4 °F 28% 30.20 in - WSW 23.0 mph - N/A   Scattered Clouds
12:57 AM 19.4 °F 2.1 °F -9.4 °F 28% 30.20 in - WSW 24.2 mph - N/A   Mostly Cloudy
1:17 AM 21.2 °F 3.5 °F -11.2 °F 24% 30.20 in - WSW 27.6 mph - N/A   Scattered Clouds
1:37 AM 21.2 °F 3.5 °F -13.0 °F 22% 30.20 in - WSW 27.6 mph - N/A   Clear
1:57 AM 23.0 °F 5.7 °F -13.0 °F 20% 30.20 in - WSW 28.8 mph - N/A   Clear
2:17 AM 23.0 °F 5.7 °F -9.4 °F 24% 30.19 in - WSW 28.8 mph - N/A   Clear
2:37 AM 23.0 °F 6.0 °F -7.6 °F 26% 30.19 in - WSW 27.6 mph - N/A   Clear
2:57 AM 23.0 °F 5.7 °F -7.6 °F 26% 30.18 in - WSW 28.8 mph - N/A   Clear
3:17 AM 21.2 °F 4.2 °F -9.4 °F 26% 30.18 in - WSW 25.3 mph - N/A   Clear
3:37 AM 21.2 °F 3.9 °F -13.0 °F 22% 30.18 in - WSW 26.5 mph - N/A   Clear
3:57 AM 21.2 °F 3.5 °F -9.4 °F 26% 30.17 in - WSW 27.6 mph - N/A   Clear
4:17 AM 21.2 °F 3.5 °F -9.4 °F 26% 30.17 in - WSW 27.6 mph - N/A   Clear
4:37 AM 21.2 °F 4.5 °F -11.2 °F 24% 30.17 in - WSW 24.2 mph - N/A   Clear
4:57 AM 19.4 °F 2.5 °F -11.2 °F 25% 30.17 in - West 23.0 mph - N/A   Clear
5:37 AM 21.2 °F - -7.6 °F 28% 30.18 in - North - - N/A   Clear
5:57 AM 19.4 °F 5.0 °F -9.4 °F 28% 30.18 in - West 16.1 mph - N/A   Clear
6:17 AM 21.2 °F - -5.8 °F 30% 30.18 in - North - - N/A   Clear
6:37 AM 21.2 °F - -5.8 °F 30% 30.18 in - North - - N/A   Clear
6:57 AM 21.2 °F - -5.8 °F 30% 30.18 in - North - - N/A   Clear
7:17 AM 19.4 °F 5.5 °F -11.2 °F 25% 30.18 in - WSW 15.0 mph - N/A   Clear
7:37 AM 19.4 °F - -9.4 °F 28% 30.19 in - North - - N/A   Clear
7:57 AM 19.4 °F - -9.4 °F 28% 30.20 in - North - - N/A   Clear
8:17 AM 21.2 °F 11.7 °F -4.0 °F 33% 30.20 in - West 8.1 mph - N/A   Clear
8:37 AM 21.2 °F 10.9 °F -2.2 °F 36% 30.21 in - WSW 9.2 mph - N/A   Clear
8:57 AM 21.2 °F 10.1 °F -4.0 °F 33% 30.21 in - WSW 10.4 mph - N/A   Clear
9:17 AM 21.2 °F 9.5 °F -4.0 °F 33% 30.21 in - SW 11.5 mph - N/A   Clear
9:37 AM 23.0 °F 11.7 °F -2.2 °F 33% 30.21 in - SW 11.5 mph - N/A   Clear
9:57 AM 23.0 °F 11.1 °F -0.4 °F 36% 30.22 in - SW 12.7 mph - N/A   Scattered Clouds
10:17 AM 23.0 °F 11.1 °F -4.0 °F 31% 30.22 in - SW 12.7 mph - N/A   Mostly Cloudy
10:37 AM 24.8 °F 13.4 °F -4.0 °F 28% 30.22 in - SW 12.7 mph - N/A   Mostly Cloudy
10:57 AM 26.6 °F 14.7 °F -5.8 °F 24% 30.21 in - SSW 15.0 mph - N/A   Scattered Clouds
11:17 AM 26.6 °F 16.2 °F -5.8 °F 24% 30.20 in - SW 11.5 mph - N/A   Clear
11:36 AM 28.4 °F 19.1 °F -7.6 °F 21% 30.20 in - SW 10.4 mph - N/A   Clear
12:17 PM 28.4 °F 18.0 °F -9.4 °F 19% 30.17 in - SSW 12.7 mph - N/A   Clear
12:37 PM 28.4 °F 18.5 °F -11.2 °F 18% 30.16 in - SW 11.5 mph - N/A   Clear
12:57 PM 30.2 °F 21.3 °F -11.2 °F 16% 30.15 in - SW 10.4 mph - N/A   Clear
1:17 PM 30.2 °F 21.9 °F -9.4 °F 18% 30.15 in - SW 9.2 mph - N/A   Clear
1:37 PM 30.2 °F 21.3 °F -14.8 °F 14% 30.15 in - West 10.4 mph - N/A   Clear
1:57 PM 30.2 °F 20.8 °F -13.0 °F 15% 30.15 in - West 11.5 mph - N/A   Clear
2:17 PM 30.2 °F 20.2 °F -13.0 °F 15% 30.14 in - WSW 12.7 mph - N/A   Clear
2:37 PM 32.0 °F 22.5 °F -11.2 °F 15% 30.14 in - WSW 12.7 mph - N/A   Clear
2:57 PM 30.2 °F 20.8 °F -13.0 °F 15% 30.14 in - WSW 11.5 mph - N/A   Clear
3:17 PM 30.2 °F 20.2 °F -13.0 °F 15% 30.14 in - WSW 12.7 mph - N/A   Clear
3:37 PM 30.2 °F 18.9 °F -9.4 °F 18% 30.14 in - WSW 16.1 mph - N/A   Clear
4:17 PM 28.4 °F 17.0 °F -7.6 °F 21% 30.14 in - WSW 15.0 mph - N/A   Clear
4:37 PM 28.4 °F 17.0 °F -13.0 °F 16% 30.13 in - WSW 15.0 mph - N/A   Clear
4:57 PM 26.6 °F 14.7 °F -9.4 °F 21% 30.13 in - WSW 15.0 mph - N/A   Clear
5:17 PM 24.8 °F 11.9 °F -7.6 °F 24% 30.13 in - WSW 16.1 mph - N/A   Clear
5:37 PM 23.0 °F 8.0 °F -9.4 °F 24% 30.12 in - WSW 20.7 mph - N/A   Clear
5:57 PM 23.0 °F 8.0 °F -9.4 °F 24% 30.13 in - WSW 20.7 mph 27.6 mph N/A   Clear
6:17 PM 21.2 °F 5.2 °F -7.6 °F 28% 30.14 in - West 21.9 mph - N/A   Clear
6:37 PM 21.2 °F 5.2 °F -11.2 °F 24% 30.13 in - West 21.9 mph - N/A   Clear
6:57 PM 21.2 °F - -7.6 °F 28% 30.13 in - North - - N/A   Clear
7:17 PM 21.2 °F - -7.6 °F 28% 30.13 in - North - - N/A   Clear
7:37 PM 19.4 °F - -5.8 °F 33% 30.13 in - North - - N/A   Clear
7:57 PM 19.4 °F - -5.8 °F 33% 30.12 in - North - - N/A   Clear
8:17 PM 17.6 °F - -5.8 °F 35% 30.12 in - North - - N/A   Clear
8:37 PM 17.6 °F - -4.0 °F 38% 30.11 in - North - - N/A   Clear
8:57 PM 17.6 °F - -4.0 °F 38% 30.10 in - North - - N/A   Clear
9:17 PM 15.8 °F - -4.0 °F 41% 30.09 in - North - - N/A   Clear
9:37 PM 14.0 °F - -4.0 °F 45% 30.10 in - North - - N/A   Unknown
9:57 PM 14.0 °F - -2.2 °F 49% 30.10 in - North - - N/A   Clear
10:17 PM 15.8 °F - -2.2 °F 45% 30.10 in - North - - N/A   Clear
10:37 PM 15.8 °F - -0.4 °F 49% 30.10 in - North - - N/A   Clear
10:57 PM 15.8 °F - -2.2 °F 45% 30.10 in - North - - N/A   Clear
11:17 PM 15.8 °F - -4.0 °F 41% 30.10 in - North - - N/A   Clear
11:57 PM 15.8 °F - -4.0 °F 41% 30.09 in - North - - N/A   Clear